Location: Waco, TX
(31.5480°N, 97.1670°W)
Time: 06:27:39
(UTC-05:00)

ISS - Pass Details

Date: 01 October 2022
Orbit: 414 x 417 km, 51.6° (Epoch: 01 October)

Event Time Altitude Azimuth Distance (km) Brightness Sun altitude
Rises 13:08:59 0° 200° (SSW) 2,332 0.5 55.0°
Reaches altitude 10° 13:11:16 10° 187° (S) 1,474 -0.2 55.0°
Maximum altitude 13:14:04 26° 129° (SE) 858 -1.4 55.0°
Drops below altitude 10° 13:16:54 10° 71° (ENE) 1,484 -1.0 55.1°
Sets 13:19:12 0° 58° (ENE) 2,350 -0.1 55.1°
